EDT,Max TemperatureF,Mean TemperatureF,Min TemperatureF,Max Dew PointF,MeanDew PointF,Min DewpointF,Max Humidity, Mean Humidity, Min Humidity, Max Sea Level PressureIn, Mean Sea Level PressureIn, Min Sea Level PressureIn, Max VisibilityMiles, Mean VisibilityMiles, Min VisibilityMiles, Max Wind SpeedMPH, Mean Wind SpeedMPH, Max Gust SpeedMPH,PrecipitationIn, CloudCover, Events, WindDirDegrees
2010-10-1,69,62,55,56,49,42,93,68,42,29.97,29.79,29.59,10,10,9,24,13,31,T,3,Rain,326
2010-10-2,67,55,43,48,44,42,93,68,42,30.04,29.99,29.96,10,10,10,8,1,9,0.00,0,,342
2010-10-3,67,57,46,52,46,43,93,68,42,30.13,30.05,30.00,10,10,8,13,5,18,0.11,3,Rain,26
2010-10-4,55,51,46,52,45,41,93,80,66,30.19,30.16,30.12,10,9,5,16,7,24,0.26,7,Rain,344
2010-10-5,57,53,48,43,41,39,77,69,61,30.14,30.11,30.05,10,10,2,17,9,22,0.00,8,,298
2010-10-6,58,54,49,47,43,41,80,69,57,30.04,29.95,29.85,10,10,10,20,8,25,T,7,Rain,254
2010-10-7,72,61,50,48,45,43,83,59,35,29.98,29.86,29.80,10,9,2,23,10,30,0.00,2,,270
2010-10-8,78,61,44,44,41,39,83,55,27,30.09,30.02,29.95,10,10,10,13,5,16,0.00,0,,244
2010-10-9,82,66,50,50,44,39,77,50,22,30.01,29.97,29.93,10,10,10,15,4,20,0.00,0,,268
2010-10-10,84,67,49,54,49,44,83,57,31,30.03,29.90,29.79,10,10,10,17,4,21,0.00,0,Thunderstorm,219
2010-10-11,85,69,53,54,51,47,83,57,31,29.87,29.82,29.78,10,10,10,16,4,21,0.00,0,,229
2010-10-12,81,67,52,55,49,37,93,63,33,29.93,29.82,29.77,10,10,7,20,6,25,0.00,0,,316
2010-10-13,66,56,46,44,41,38,80,59,37,30.08,30.01,29.94,10,10,10,9,3,12,0.00,0,,22
2010-10-14,62,55,47,52,46,39,100,78,55,29.98,29.88,29.79,10,6,1,18,5,25,0.68,6,Rain,352
2010-10-15,60,52,43,39,37,33,83,63,43,29.87,29.77,29.70,10,10,10,24,11,33,T,2,,281
2010-10-16,65,55,44,38,36,35,76,55,34,30.04,29.98,29.88,10,10,10,28,11,41,0.00,0,,293
2010-10-17,76,59,42,44,40,37,82,56,29,30.05,29.97,29.87,10,10,10,24,9,33,0.00,0,,248
2010-10-18,62,51,40,45,40,35,82,64,46,30.05,29.98,29.93,10,10,10,12,2,15,T,3,,7
2010-10-19,63,53,42,49,47,41,96,79,62,29.97,29.95,29.90,10,8,2,12,1,15,0.18,6,Rain,46
2010-10-20,61,50,38,47,43,37,100,80,60,29.97,29.89,29.80,10,8,2,8,1,12,0.01,1,,178
2010-10-21,65,55,44,45,36,25,93,59,25,29.88,29.74,29.66,10,8,2,24,10,38,0.01,0,,246
2010-10-22,57,48,38,35,31,28,76,56,35,30.21,30.11,29.92,10,10,10,21,8,29,0.00,2,,277
2010-10-23,73,53,33,44,35,30,89,58,27,30.25,30.20,30.14,10,10,10,13,4,17,0.00,0,,205
2010-10-24,78,62,46,48,46,43,86,59,31,30.16,30.08,29.99,10,10,10,10,3,14,0.00,0,,175
2010-10-25,73,60,47,60,53,45,90,76,61,29.96,29.86,29.74,10,10,10,18,4,25,T,3,Rain,183
2010-10-26,73,63,52,67,60,52,100,84,68,29.86,29.79,29.71,10,9,2,17,8,24,0.42,2,Rain,174
2010-10-27,70,62,54,66,60,54,100,84,68,29.91,29.86,29.77,10,7,0,8,2,15,0.14,5,Fog-Rain,235
2010-10-28,73,60,47,56,41,27,100,59,17,30.07,29.93,29.86,10,10,9,24,11,30,0.00,0,,255
2010-10-29,52,45,38,33,30,27,64,53,41,30.21,30.15,30.04,10,10,10,26,13,33,0.00,4,,295
2010-10-30,61,48,34,35,31,28,76,56,35,30.21,30.03,29.80,10,10,10,13,5,20,0.00,0,,182
2010-10-31,59,50,40,38,32,27,65,51,36,30.20,29.96,29.79,10,10,10,20,7,26,0.00,2,,287